FW0225 Weather Reports


Display with metric or nautical units.
time (UTC)temp
F
wind
direction
speed
MPH
gust
MPH
rain 1hr
in
rain 24hr
in
rain mn
in
humidity
%
barometer
mb
20260903184041 71 205 0.0 1.0 0.00 0.00 0.00 77 1017.6
20260903183525 71 205 0.0 2.0 0.00 0.00 0.00 77 1017.6
20260903183020 72 205 1.0 2.0 0.00 0.00 0.00 76 1017.5
20260903182527 72 205 0.0 1.0 0.00 0.00 0.00 76 1017.4
20260903182030 72 205 0.0 2.0 0.00 0.00 0.00 76 1017.3
20260903181517 72 205 1.0 3.0 0.00 0.00 0.00 75 1017.4
20260903181020 73 205 1.0 3.0 0.00 0.00 0.00 75 1017.3
20260903180526 73 205 1.0 2.0 0.00 0.00 0.00 75 1017.3
20260903180020 73 205 1.0 2.0 0.00 0.00 0.00 75 1017.2
20260903175530 73 205 0.0 2.0 0.00 0.00 0.00 74 1017.3
20260903175013 74 205 0.0 2.0 0.00 0.00 0.00 74 1017.2
20260903174518 74 205 0.0 1.0 0.00 0.00 0.00 73 1017.2
20260903174040 74 205 0.0 1.0 0.00 0.00 0.00 72 1017.1
20260903173527 75 205 0.0 1.0 0.00 0.00 0.00 71 1017.0
20260903173023 75 205 0.0 1.0 0.00 0.00 0.00 71 1017.0
20260903172527 75 205 0.0 1.0 0.00 0.00 0.00 71 1017.1
20260903172028 75 205 0.0 2.0 0.00 0.00 0.00 71 1017.0
20260903171535 76 205 1.0 2.0 0.00 0.00 0.00 70 1016.9
20260903171017 76 205 0.0 1.0 0.00 0.00 0.00 70 1016.9
20260903170543 77 205 0.0 1.0 0.00 0.00 0.00 70 1016.8
20260903170016 77 205 0.0 0.0 0.00 0.00 0.00 68 1016.8
20260903165524 77 205 0.0 0.0 0.00 0.00 0.00 69 1016.8
20260903165013 78 205 0.0 0.0 0.00 0.00 0.00 68 1016.7
20260903164518 78 205 0.0 0.0 0.00 0.00 0.00 68 1016.7
20260903164022 79 205 0.0 0.0 0.00 0.00 0.00 67 1016.7
20260903163528 79 205 0.0 0.0 0.00 0.00 0.00 67 1016.7
20260903163023 80 205 0.0 0.0 0.00 0.00 0.00 64 1016.7
20260903162530 80 205 0.0 0.0 0.00 0.00 0.00 64 1016.7
20260903162052 81 206 0.0 0.0 0.00 0.00 0.00 64 1016.7
20260903161515 81 205 0.0 0.0 0.00 0.00 0.00 63 1016.6
20260903161017 82 205 0.0 0.0 0.00 0.00 0.00 63 1016.6
20260903160545 82 205 0.0 1.0 0.00 0.00 0.00 62 1016.5
20260903160018 82 205 0.0 1.0 0.00 0.00 0.00 62 1016.4
20260903155523 83 205 0.0 1.0 0.00 0.00 0.00 63 1016.4
20260903155027 83 205 0.0 2.0 0.00 0.00 0.00 66 1016.4
20260903154517 84 205 1.0 2.0 0.00 0.00 0.00 65 1016.2
20260903154020 84 205 1.0 1.0 0.00 0.00 0.00 65 1016.2
20260903153525 85 205 0.0 2.0 0.00 0.00 0.00 61 1016.3
20260903153019 85 205 1.0 2.0 0.00 0.00 0.00 60 1016.2
20260903152525 86 205 1.0 2.0 0.00 0.00 0.00 57 1016.1
20260903152047 86 205 1.0 3.0 0.00 0.00 0.00 52 1016.1
20260903151511 87 205 1.0 3.0 0.00 0.00 0.00 55 1016.0
20260903151014 88 207 1.0 4.0 0.00 0.00 0.00 55 1016.0
20260903150520 88 207 2.0 4.0 0.00 0.00 0.00 47 1016.0
20260903150015 88 207 2.0 5.0 0.00 0.00 0.00 53 1016.1
20260903145540 88 210 2.0 5.0 0.00 0.00 0.00 49 1016.2
20260903145022 89 210 1.0 2.0 0.00 0.00 0.00 49 1016.2
20260903144530 89 211 1.0 3.0 0.00 0.00 0.00 46 1016.2
20260903144033 90 210 2.0 4.0 0.00 0.00 0.00 46 1016.2
20260903143521 90 210 2.0 3.0 0.00 0.00 0.00 46 1016.3
20260903143014 90 210 2.0 5.0 0.00 0.00 0.00 43 1016.3
20260903142520 91 209 1.0 5.0 0.00 0.00 0.00 39 1016.3
20260903142042 92 215 2.0 4.0 0.00 0.00 0.00 37 1016.3
20260903141528 92 211 1.0 4.0 0.00 0.00 0.00 40 1016.2
20260903141051 92 213 2.0 5.0 0.00 0.00 0.00 38 1016.3
20260903140537 92 219 2.0 8.0 0.00 0.00 0.00 38 1016.4
20260903140031 92 193 4.0 8.0 0.00 0.00 0.00 41 1016.5
20260903135517 92 215 3.0 5.0 0.00 0.00 0.00 37 1016.5
20260903135019 92 207 1.0 5.0 0.00 0.00 0.00 37 1016.4
20260903134524 92 212 2.0 6.0 0.00 0.00 0.00 36 1016.5
20260903134026 92 211 3.0 6.0 0.00 0.00 0.00 39 1016.5
20260903133512 92 192 1.0 6.0 0.00 0.00 0.00 38 1016.6
20260903133026 92 194 3.0 6.0 0.00 0.00 0.00 37 1016.7
20260903132511 92 105 1.0 4.0 0.00 0.00 0.00 37 1016.6
20260903132015 92 122 3.0 4.0 0.00 0.00 0.00 36 1016.6
20260903131520 92 213 1.0 5.0 0.00 0.00 0.00 38 1016.6
20260903131026 92 213 2.0 5.0 0.00 0.00 0.00 36 1016.6
20260903130514 92 214 2.0 5.0 0.00 0.00 0.00 39 1016.6
20260903130028 92 230 2.0 8.0 0.00 0.00 0.00 36 1016.6
20260903125514 92 223 2.0 8.0 0.00 0.00 0.00 37 1016.6
20260903125018 92 228 3.0 7.0 0.00 0.00 0.00 38 1016.6
20260903124524 92 195 1.0 6.0 0.00 0.00 0.00 38 1016.7
20260903124027 92 198 1.0 4.0 0.00 0.00 0.00 38 1016.7
20260903123512 92 183 2.0 6.0 0.00 0.00 0.00 37 1016.7
20260903123025 92 180 2.0 6.0 0.00 0.00 0.00 37 1016.8
20260903122529 92 210 3.0 5.0 0.00 0.00 0.00 41 1016.8
20260903122032 92 202 3.0 4.0 0.00 0.00 0.00 38 1016.9
20260903121519 91 175 1.0 3.0 0.00 0.00 0.00 36 1016.9
20260903121027 91 176 2.0 5.0 0.00 0.00 0.00 38 1017.0
20260903120514 91 161 2.0 5.0 0.00 0.00 0.00 36 1017.1
20260903120030 91 128 2.0 3.0 0.00 0.00 0.00 37 1017.1
20260903115516 90 118 2.0 3.0 0.00 0.00 0.00 36 1017.1
20260903115019 90 124 1.0 3.0 0.00 0.00 0.00 36 1017.1
20260903114526 89 124 2.0 3.0 0.00 0.00 0.00 41 1017.2
20260903114051 90 121 0.0 3.0 0.00 0.00 0.00 40 1017.2
20260903113539 90 121 2.0 4.0 0.00 0.00 0.00 38 1017.3
20260903113051 90 119 2.0 4.0 0.00 0.00 0.00 36 1017.3
20260903112515 90 198 2.0 4.0 0.00 0.00 0.00 37 1017.3
20260903112015 90 213 2.0 5.0 0.00 0.00 0.00 38 1017.3
20260903111522 90 217 1.0 5.0 0.00 0.00 0.00 39 1017.4
20260903111024 90 188 3.0 5.0 0.00 0.00 0.00 39 1017.4
20260903110530 90 195 2.0 6.0 0.00 0.00 0.00 37 1017.4
20260903110023 91 186 3.0 6.0 0.00 0.00 0.00 38 1017.5
20260903105511 91 151 3.0 5.0 0.00 0.00 0.00 36 1017.6
20260903105013 90 25 2.0 4.0 0.00 0.00 0.00 36 1017.6
20260903104517 90 61 1.0 3.0 0.00 0.00 0.00 40 1017.7
20260903104020 90 61 0.0 5.0 0.00 0.00 0.00 37 1017.6
20260903103527 90 61 2.0 4.0 0.00 0.00 0.00 37 1017.7
20260903103023 90 73 1.0 5.0 0.00 0.00 0.00 38 1017.7
20260903102529 90 53 1.0 6.0 0.00 0.00 0.00 41 1017.8
20260903102032 90 44 3.0 6.0 0.00 0.00 0.00 43 1017.9
20260903101518 89 65 1.0 5.0 0.00 0.00 0.00 44 1017.9
20260903101041 89 82 1.0 4.0 0.00 0.00 0.00 41 1018.0
20260903100545 89 82 2.0 6.0 0.00 0.00 0.00 42 1018.0
20260903100039 88 68 3.0 6.0 0.00 0.00 0.00 43 1018.2
20260903095526 88 60 2.0 5.0 0.00 0.00 0.00 43 1018.3
20260903095029 88 61 1.0 5.0 0.00 0.00 0.00 43 1018.3
20260903094515 88 43 3.0 5.0 0.00 0.00 0.00 45 1018.4
20260903094021 87 49 3.0 5.0 0.00 0.00 0.00 47 1018.5
20260903093525 87 59 2.0 4.0 0.00 0.00 0.00 49 1018.5
20260903093020 87 59 1.0 2.0 0.00 0.00 0.00 50 1018.5
20260903092525 86 59 0.0 3.0 0.00 0.00 0.00 50 1018.6
20260903092049 86 57 2.0 4.0 0.00 0.00 0.00 51 1018.6
20260903091512 85 55 2.0 4.0 0.00 0.00 0.00 53 1018.7
20260903091015 85 51 2.0 4.0 0.00 0.00 0.00 54 1018.6
20260903090523 84 48 0.0 2.0 0.00 0.00 0.00 54 1018.6
20260903090019 84 48 1.0 5.0 0.00 0.00 0.00 53 1018.7
20260903085543 84 48 2.0 5.0 0.00 0.00 0.00 56 1018.8
20260903085023 83 50 0.0 5.0 0.00 0.00 0.00 56 1018.8
20260903084549 83 50 2.0 5.0 0.00 0.00 0.00 60 1018.8
20260903084012 83 55 2.0 4.0 0.00 0.00 0.00 55 1018.8
20260903083517 82 55 2.0 5.0 0.00 0.00 0.00 56 1018.8
20260903083031 82 55 2.0 5.0 0.00 0.00 0.00 56 1018.9
20260903082517 82 60 2.0 4.0 0.00 0.00 0.00 57 1018.9
20260903082023 81 60 3.0 5.0 0.00 0.00 0.00 57 1018.9
20260903081530 80 61 3.0 5.0 0.00 0.00 0.00 58 1019.0
20260903081013 80 46 2.0 3.0 0.00 0.00 0.00 58 1019.0
20260903080518 80 46 2.0 3.0 0.00 0.00 0.00 59 1019.1
20260903080012 80 46 2.0 4.0 0.00 0.00 0.00 61 1019.1
20260903075519 79 47 2.0 4.0 0.00 0.00 0.00 61 1019.1
20260903075020 79 47 2.0 5.0 0.00 0.00 0.00 61 1019.1
20260903074525 79 44 3.0 5.0 0.00 0.00 0.00 61 1019.1
20260903074028 78 41 1.0 5.0 0.00 0.00 0.00 62 1019.1
20260903073516 78 41 2.0 5.0 0.00 0.00 0.00 63 1019.1
20260903073049 77 39 2.0 4.0 0.00 0.00 0.00 62 1019.1
20260903072513 77 39 1.0 4.0 0.00 0.00 0.00 64 1019.1
20260903072012 76 39 2.0 6.0 0.00 0.00 0.00 64 1019.1
20260903071522 76 36 2.0 8.0 0.00 0.00 0.00 65 1019.1
20260903071024 75 32 1.0 8.0 0.00 0.00 0.00 66 1019.2
20260903070551 75 30 3.0 5.0 0.00 0.00 0.00 66 1019.3
20260903070025 74 28 2.0 4.0 0.00 0.00 0.00 69 1019.3
20260903065531 73 32 1.0 3.0 0.00 0.00 0.00 71 1019.3
20260903065012 72 32 1.0 2.0 0.00 0.00 0.00 72 1019.3
20260903064518 70 32 1.0 3.0 0.00 0.00 0.00 73 1019.3
20260903064023 69 32 1.0 3.0 0.00 0.00 0.00 75 1019.3
20260903063528 69 32 1.0 4.0 0.00 0.00 0.00 76 1019.3
20260903063042 68 32 2.0 4.0 0.00 0.00 0.00 77 1019.3
20260903062547 68 32 1.0 4.0 0.00 0.00 0.00 78 1019.2
20260903062049 67 32 1.0 3.0 0.00 0.00 0.00 80 1019.3
20260903061534 67 32 1.0 4.0 0.00 0.00 0.00 80 1019.2
20260903061015 66 32 3.0 4.0 0.00 0.00 0.00 80 1019.2
20260903060540 66 32 2.0 4.0 0.00 0.00 0.00 82 1019.1
20260903060013 65 32 2.0 6.0 0.00 0.00 0.00 83 1019.1
20260903055520 64 32 2.0 6.0 0.00 0.00 0.00 84 1019.0
20260903055042 64 31 1.0 2.0 0.00 0.00 0.00 85 1019.0
20260903054526 64 31 0.0 2.0 0.00 0.00 0.00 85 1018.9
20260903054012 63 31 1.0 2.0 0.00 0.00 0.00 85 1018.9
20260903053519 63 31 1.0 1.0 0.00 0.00 0.00 86 1018.8
20260903053014 63 31 0.0 1.0 0.00 0.00 0.00 86 1018.8
20260903052518 63 31 0.0 2.0 0.00 0.00 0.00 86 1018.8
20260903052019 63 31 0.0 2.0 0.00 0.00 0.00 86 1018.8
20260903051524 63 31 0.0 1.0 0.00 0.00 0.00 86 1018.8
20260903051026 63 31 0.0 2.0 0.00 0.00 0.00 86 1018.7
20260903050550 63 31 0.0 2.0 0.00 0.00 0.00 86 1018.7
20260903050044 63 31 1.0 1.0 0.00 0.00 0.00 85 1018.6
20260903045530 63 31 1.0 1.0 0.00 0.00 0.00 85 1018.5
20260903045032 63 31 0.0 1.0 0.00 0.00 0.00 85 1018.5
20260903044519 63 31 0.0 1.0 0.00 0.00 0.00 85 1018.6
20260903044023 63 31 0.0 1.0 0.00 0.00 0.00 85 1018.5
20260903043528 63 31 0.0 1.0 0.00 0.00 0.00 85 1018.4
20260903043020 63 31 0.0 2.0 0.00 0.00 0.00 85 1018.5
20260903042526 63 31 0.0 2.0 0.00 0.00 0.00 85 1018.4
20260903042013 63 31 0.0 0.0 0.00 0.00 0.00 85 1018.4
20260903041520 63 31 0.0 0.0 0.00 0.00 0.00 85 1018.4
20260903041043 63 31 0.0 1.0 0.00 0.00 0.00 84 1018.4
20260903040527 63 31 0.0 1.0 0.00 0.00 0.00 84 1018.4
20260903040020 64 31 0.0 1.0 0.00 0.00 0.00 84 1018.4
20260903035529 64 31 0.0 1.0 0.00 0.00 0.00 84 1018.4
20260903035031 64 31 0.0 1.0 0.00 0.00 0.00 83 1018.3
20260903034514 64 31 0.0 1.0 0.00 0.00 0.00 83 1018.3
20260903034017 64 31 0.0 1.0 0.00 0.00 0.00 83 1018.3
20260903033524 64 31 1.0 1.0 0.00 0.00 0.00 82 1018.2
20260903033017 64 31 0.0 0.0 0.00 0.00 0.00 82 1018.3
20260903032524 64 31 0.0 1.0 0.00 0.00 0.00 82 1018.3
20260903032028 64 31 0.0 1.0 0.00 0.00 0.00 81 1018.3
20260903031514 65 31 0.0 1.0 0.00 0.00 0.00 81 1018.2
20260903031036 65 31 0.0 1.0 0.00 0.00 0.00 81 1018.2
20260903030540 65 31 0.0 0.0 0.00 0.00 0.00 81 1018.2
20260903030034 65 31 0.0 0.0 0.00 0.00 0.00 80 1018.2
20260903025522 65 31 0.0 2.0 0.00 0.00 0.00 80 1018.3
20260903025023 66 31 0.0 2.0 0.00 0.00 0.00 80 1018.3
20260903024528 66 31 0.0 2.0 0.00 0.00 0.00 79 1018.3
20260903024030 66 31 0.0 1.0 0.00 0.00 0.00 79 1018.3
20260903023516 66 31 0.0 0.0 0.00 0.00 0.00 79 1018.3
20260903023031 67 31 0.0 1.0 0.00 0.00 0.00 78 1018.3
20260903022517 67 31 0.0 1.0 0.00 0.00 0.00 78 1018.3
20260903022022 67 31 1.0 1.0 0.00 0.00 0.00 77 1018.3
20260903021527 68 31 0.0 1.0 0.00 0.00 0.00 77 1018.4
20260903021030 68 31 0.0 2.0 0.00 0.00 0.00 76 1018.3
20260903020515 68 31 0.0 2.0 0.00 0.00 0.00 76 1018.3
20260903020050 68 31 0.0 2.0 0.00 0.00 0.00 75 1018.3
20260903015514 69 31 0.0 3.0 0.00 0.00 0.00 74 1018.3
20260903015038 69 31 0.0 3.0 0.00 0.00 0.00 74 1018.3
20260903014525 70 31 1.0 3.0 0.00 0.00 0.00 73 1018.3
20260903014013 70 31 1.0 2.0 0.00 0.00 0.00 72 1018.3
20260903013539 70 31 0.0 4.0 0.00 0.00 0.00 73 1018.3
20260903013013 71 31 1.0 4.0 0.00 0.00 0.00 71 1018.3
20260903012519 71 32 1.0 3.0 0.00 0.00 0.00 71 1018.3
20260903012023 71 32 1.0 3.0 0.00 0.00 0.00 71 1018.2
20260903011529 70 32 2.0 4.0 0.00 0.00 0.00 71 1018.2
20260903011030 70 32 2.0 4.0 0.00 0.00 0.00 71 1018.2
20260903010512 70 34 2.0 3.0 0.00 0.00 0.00 72 1018.2
20260903010044 70 34 1.0 3.0 0.00 0.00 0.00 73 1018.1
20260903005526 69 34 1.0 4.0 0.00 0.00 0.00 73 1018.1
20260903005028 69 34 1.0 4.0 0.00 0.00 0.00 73 1018.1
20260903004532 69 34 0.0 2.0 0.00 0.00 0.00 75 1018.1
20260903004014 68 34 1.0 2.0 0.00 0.00 0.00 75 1018.1
20260903003521 68 34 0.0 1.0 0.00 0.00 0.00 76 1018.1
20260903003015 68 34 0.0 2.0 0.00 0.00 0.00 76 1018.1
20260903002519 68 34 1.0 2.0 0.00 0.00 0.00 75 1018.1
20260903002040 69 34 1.0 2.0 0.00 0.00 0.00 75 1018.2
20260903001523 69 34 1.0 2.0 0.00 0.00 0.00 74 1018.1
20260903001026 69 34 0.0 1.0 0.00 0.00 0.00 74 1018.0
20260903000549 70 34 0.0 2.0 0.00 0.00 0.00 73 1018.1
20260903000020 70 34 0.0 3.0 0.00 0.00 0.00 73 1018.0
20260902235525 70 34 0.0 3.0 0.00 0.00 0.00 73 1017.9
20260902235026 71 34 1.0 3.0 0.00 0.00 0.00 72 1017.9
20260902234529 71 34 1.0 2.0 0.00 0.00 0.00 71 1017.8
20260902234027 72 34 0.0 5.0 0.00 0.00 0.00 70 1017.9
20260902233530 72 34 1.0 5.0 0.00 0.00 0.00 68 1017.9
20260902233022 72 35 1.0 3.0 0.00 0.00 0.00 68 1017.8
20260902232526 73 36 2.0 3.0 0.00 0.00 0.00 68 1017.7
20260902232013 73 36 1.0 2.0 0.00 0.00 0.00 67 1017.7
20260902231518 73 36 0.0 3.0 0.00 0.00 0.00 67 1017.8
20260902231038 73 36 1.0 4.0 0.00 0.00 0.00 65 1017.8
20260902230521 73 36 2.0 4.0 0.00 0.00 0.00 67 1017.7
20260902230053 73 39 1.0 2.0 0.00 0.00 0.00 69 1017.6
20260902225516 74 39 0.0 2.0 0.00 0.00 0.00 67 1017.4
20260902225036 74 39 0.0 3.0 0.00 0.00 0.00 66 1017.5
20260902224518 74 39 1.0 3.0 0.00 0.00 0.00 65 1017.6
20260902224019 74 39 1.0 7.0 0.00 0.00 0.00 66 1017.7
20260902223521 75 40 2.0 7.0 0.00 0.00 0.00 65 1017.8
20260902223015 75 52 2.0 6.0 0.00 0.00 0.00 64 1017.9
20260902222518 75 54 2.0 6.0 0.00 0.00 0.00 63 1018.0
20260902222018 75 53 1.0 7.0 0.00 0.00 0.00 65 1018.0
20260902221522 74 53 4.0 11.0 0.00 0.00 0.00 65 1018.0
20260902221022 74 51 5.0 11.0 0.00 0.00 0.00 65 1018.0
20260902220531 73 45 3.0 7.0 0.00 0.00 0.00 67 1018.0
20260902220043 72 42 2.0 7.0 0.00 0.00 0.00 72 1017.9
20260902215527 71 42 1.0 7.0 0.00 0.00 0.00 76 1017.8
20260902215028 70 46 2.0 3.0 0.00 0.00 0.00 81 1017.7
20260902214553 69 47 2.0 3.0 0.00 0.00 0.00 83 1017.6
20260902214013 69 47 0.0 3.0 0.00 0.00 0.00 84 1017.6
20260902213516 69 47 0.0 2.0 0.00 0.00 0.00 84 1017.6
20260902213027 69 47 1.0 2.0 0.00 0.00 0.00 84 1017.5
20260902212531 69 47 1.0 2.0 0.00 0.00 0.00 84 1017.5
20260902212030 69 47 1.0 2.0 0.00 0.00 0.00 84 1017.5
20260902211514 69 47 1.0 2.0 0.00 0.00 0.00 84 1017.4
20260902211013 69 47 0.0 2.0 0.00 0.00 0.00 84 1017.4
20260902210516 69 47 0.0 2.0 0.00 0.00 0.00 84 1017.3
20260902210028 69 47 0.0 2.0 0.00 0.00 0.00 84 1017.3
20260902205533 69 47 0.0 1.0 0.00 0.00 0.00 84 1017.3
20260902205016 69 47 0.0 1.0 0.00 0.00 0.00 83 1017.3
20260902204520 69 47 0.0 1.0 0.00 0.00 0.00 83 1017.3
20260902204022 69 47 0.0 1.0 0.00 0.00 0.00 83 1017.3
20260902203545 69 47 0.0 1.0 0.00 0.00 0.00 83 1017.3
20260902203016 69 47 0.0 1.0 0.00 0.00 0.00 83 1017.3
20260902202520 69 47 0.0 0.0 0.00 0.00 0.00 83 1017.4
20260902202021 69 47 0.0 5.0 0.00 0.00 0.00 83 1017.3
20260902201524 70 47 1.0 5.0 0.00 0.00 0.00 82 1017.3
20260902201027 70 47 1.0 3.0 0.00 0.00 0.00 82 1017.3
20260902200531 70 47 1.0 3.0 0.00 0.00 0.00 82 1017.3
20260902200025 70 47 0.0 2.0 0.00 0.00 0.00 82 1017.3
20260902195530 70 47 0.0 2.0 0.00 0.00 0.00 82 1017.4
20260902195029 70 47 0.0 1.0 0.00 0.00 0.00 81 1017.4
20260902194516 70 47 0.0 1.0 0.00 0.00 0.00 81 1017.3
20260902194019 71 47 0.0 2.0 0.00 0.00 0.00 81 1017.3
20260902193524 71 47 1.0 2.0 0.00 0.00 0.00 81 1017.2
20260902193016 71 47 1.0 3.0 0.00 0.00 0.00 80 1017.2
20260902192518 71 47 1.0 3.0 0.00 0.00 0.00 80 1017.2
20260902192040 71 47 0.0 2.0 0.00 0.00 0.00 80 1017.3
20260902191522 71 47 0.0 2.0 0.00 0.00 0.00 80 1017.4
20260902191023 71 47 0.0 2.0 0.00 0.00 0.00 80 1017.2
20260902190528 72 47 0.0 1.0 0.00 0.00 0.00 80 1017.1
20260902190018 72 47 0.0 1.0 0.00 0.00 0.00 79 1017.1
20260902185521 72 47 0.0 1.0 0.00 0.00 0.00 79 1017.0
20260902185020 72 47 0.0 0.0 0.00 0.00 0.00 79 1017.0
20260902184523 72 47 0.0 1.0 0.00 0.00 0.00 78 1016.9